Chehalis, WA
on Tuesday, February 12, 2013

Tuesday
Previous Day Next Day
Daily Summary
 ActualAverage (KOLM)Record (KOLM)
Temperature
Mean Temperature °F 41°F  
Max Temperature 51°F 49°F 62°F (1963)
Min Temperature 44°F 33°F 16°F (1949)
Degree Days
Heating Degree Days 18 24  
Month to date heating degree days 289  
Since 1 July heating degree days 3340  
Cooling Degree Days 0 0  
Month to date cooling degree days 0  
Year to date cooling degree days 0  
Moisture
Dew Point 44°F   
Average Humidity 90    
Maximum Humidity 100    
Minimum Humidity 76    
Precipitation
Precipitation 0.05 in 0.19 in 1.59 in (1954)
Month to date precipitation 2.42  
Year to date precipitation 10.26  
Wind
Wind Speed 5 mph   
Max Wind Speed 8 mph   
Max Gust Speed mph   
Visibility 7 miles   
Events Rain   

Key: T is trace of precipitation, MM is missing value
Source: NWS Daily Summary
Time(PST)TemperatureDew PointHumidity Pressure Visibility Wind DirectionWind SpeedGust SpeedPrecipitationEvents Conditions
12:15 AM 44.6°F 41.0°F 87% 30.39 in 8.0 miles South 4.6 mph - N/A   Overcast
12:35 AM 44.6°F 42.8°F 93% 30.39 in 6.0 miles South 4.6 mph - N/A   Overcast
12:55 AM 44.6°F 41.0°F 87% 30.39 in 7.0 miles SSW 3.5 mph - N/A   Overcast
1:15 AM 44.6°F 42.8°F 93% 30.39 in 5.0 miles South 4.6 mph - N/A   Overcast
1:35 AM 44.6°F 42.8°F 93% 30.39 in 3.0 miles SSW 4.6 mph - N/A   Overcast
1:55 AM 44.6°F 42.8°F 93% 30.39 in 4.0 miles South 4.6 mph - N/A   Overcast
2:15 AM 44.6°F 42.8°F 93% 30.39 in 4.0 miles South 5.8 mph - N/A   Overcast
2:35 AM 44.6°F 42.8°F 93% 30.39 in 3.0 miles South 4.6 mph - N/A   Overcast
2:55 AM 44.6°F 42.8°F 93% 30.39 in 5.0 miles South 5.8 mph - N/A   Overcast
3:15 AM 44.6°F 41.0°F 87% 30.39 in 10.0 miles Calm Calm - N/A   Overcast
3:35 AM 44.6°F 41.0°F 87% 30.38 in 10.0 miles Calm Calm - N/A   Overcast
4:15 AM 44.6°F 41.0°F 87% 30.38 in 9.0 miles SSW 3.5 mph - N/A   Overcast
4:35 AM 44.6°F 41.0°F 87% 30.39 in 10.0 miles South 3.5 mph - N/A   Overcast
4:55 AM 44.6°F 42.8°F 93% 30.39 in 10.0 miles South 3.5 mph - N/A   Overcast
5:15 AM 44.6°F 41.0°F 87% 30.39 in 6.0 miles SSW 4.6 mph - N/A   Overcast
5:35 AM 44.6°F 42.8°F 93% 30.39 in 5.0 miles SSW 5.8 mph - N/A   Overcast
5:55 AM 44.6°F 42.8°F 93% 30.40 in 2.5 miles SSW 4.6 mph - N/A   Overcast
6:15 AM 44.6°F 42.8°F 93% 30.39 in 2.5 miles South 4.6 mph - N/A   Overcast
6:35 AM 44.6°F 42.8°F 93% 30.40 in 2.0 miles South 4.6 mph - N/A   Overcast
6:55 AM 44.6°F 42.8°F 93% 30.40 in 2.5 miles South 5.8 mph - N/A   Overcast
7:15 AM 44.6°F 42.8°F 93% 30.40 in 4.0 miles South 5.8 mph - N/A   Overcast
7:35 AM 44.6°F 42.8°F 93% 30.40 in 4.0 miles South 5.8 mph - N/A   Overcast
7:55 AM 44.6°F 44.6°F 100% 30.41 in 4.0 miles SSW 4.6 mph - N/A   Overcast
8:15 AM 44.6°F 44.6°F 100% 30.42 in 5.0 miles SSW 4.6 mph - N/A   Overcast
8:35 AM 44.6°F 44.6°F 100% 30.42 in 10.0 miles SSW 5.8 mph - N/A   Overcast
8:55 AM 44.6°F 44.6°F 100% 30.43 in 5.0 miles South 4.6 mph - N/A   Overcast
9:15 AM 46.4°F 44.6°F 93% 30.43 in 5.0 miles SSW 4.6 mph - N/A   Overcast
9:35 AM 46.4°F 44.6°F 93% 30.43 in 9.0 miles SSW 5.8 mph - N/A   Overcast
9:55 AM 46.4°F 44.6°F 93% 30.43 in 10.0 miles South 6.9 mph - N/A   Overcast
10:15 AM 46.4°F 44.6°F 93% 30.43 in 10.0 miles South 5.8 mph - N/A   Overcast
10:35 AM 48.2°F 44.6°F 87% 30.44 in 10.0 miles South 6.9 mph - N/A   Overcast
10:55 AM 48.2°F 46.4°F 93% 30.44 in 6.0 miles SSW 4.6 mph - N/A   Overcast
11:15 AM 50.0°F 46.4°F 87% 30.44 in 5.0 miles South 4.6 mph - N/A   Mostly Cloudy
11:35 AM 50.0°F 46.4°F 87% 30.45 in 7.0 miles SW 4.6 mph - N/A   Mostly Cloudy
11:55 AM 50.0°F 46.4°F 87% 30.45 in 10.0 miles WSW 4.6 mph - N/A   Mostly Cloudy
12:15 PM 50.0°F 46.4°F 87% 30.44 in 9.0 miles SSW 4.6 mph - N/A   Overcast
12:35 PM 50.0°F 46.4°F 87% 30.43 in 10.0 miles SW 6.9 mph - N/A   Overcast
12:55 PM 50.0°F 46.4°F 87% 30.43 in 5.0 miles SW 5.8 mph - N/A   Haze
1:15 PM 51.8°F 46.4°F 82% 30.42 in 10.0 miles West 4.6 mph - N/A   Mostly Cloudy
1:35 PM 50.0°F 46.4°F 87% 30.42 in 8.0 miles WSW 4.6 mph - N/A   Overcast
1:55 PM 50.0°F 46.4°F 87% 30.42 in 7.0 miles WSW 4.6 mph - N/A   Overcast
2:15 PM 51.8°F 46.4°F 82% 30.42 in 10.0 miles SW 4.6 mph - N/A   Overcast
2:35 PM 51.8°F 44.6°F 76% 30.42 in 10.0 miles SW 6.9 mph - N/A   Mostly Cloudy
2:55 PM 51.8°F 44.6°F 76% 30.41 in 10.0 miles SW 6.9 mph - N/A   Overcast
3:15 PM 51.8°F 44.6°F 76% 30.40 in 10.0 miles SW 8.1 mph - N/A   Overcast
3:35 PM 51.8°F 44.6°F 76% 30.40 in 10.0 miles SSW 6.9 mph - N/A   Overcast
3:55 PM 51.8°F 44.6°F 76% 30.39 in 10.0 miles SSW 6.9 mph - N/A   Overcast
4:15 PM 51.8°F 46.4°F 82% 30.40 in 10.0 miles SSW 4.6 mph - N/A   Overcast
4:35 PM 51.8°F 46.4°F 82% 30.40 in 10.0 miles SW 3.5 mph - N/A   Overcast
4:55 PM 50.0°F 46.4°F 87% 30.40 in 3.0 miles SSW 5.8 mph - N/A   Haze
5:15 PM 50.0°F 46.4°F 87% 30.40 in 9.0 miles SSW 3.5 mph - N/A   Overcast
5:35 PM 50.0°F 46.4°F 87% 30.40 in 7.0 miles SSW 3.5 mph - N/A   Overcast
6:15 PM 48.2°F 46.4°F 93% 30.42 in 5.0 miles SW 5.8 mph - N/A   Overcast
6:35 PM 48.2°F 46.4°F 93% 30.42 in 9.0 miles SSW 3.5 mph - N/A   Overcast
6:55 PM 48.2°F 46.4°F 93% 30.42 in 5.0 miles Calm Calm - N/A   Overcast
7:15 PM 48.2°F 46.4°F 93% 30.42 in 8.0 miles SSW 5.8 mph - N/A   Overcast
7:35 PM 48.2°F 44.6°F 87% 30.42 in 7.0 miles SSW 4.6 mph - N/A   Overcast
7:55 PM 48.2°F 46.4°F 93% 30.41 in 10.0 miles South 3.5 mph - N/A   Overcast
8:15 PM 48.2°F 46.4°F 93% 30.41 in 10.0 miles South 4.6 mph - N/A   Overcast
8:35 PM 48.2°F 46.4°F 93% 30.41 in 4.0 miles South 4.6 mph - N/A   Overcast
8:55 PM 48.2°F 46.4°F 93% 30.40 in 10.0 miles South 3.5 mph - N/A   Overcast
9:15 PM 48.2°F 46.4°F 93% 30.39 in 10.0 miles South 5.8 mph - N/A   Overcast
9:35 PM 48.2°F 44.6°F 87% 30.40 in 10.0 miles Calm Calm - N/A   Overcast
9:55 PM 48.2°F 44.6°F 87% 30.40 in 7.0 miles Calm Calm - N/A   Overcast
10:15 PM 48.2°F 44.6°F 87% 30.40 in 5.0 miles SSW 3.5 mph - N/A Rain Light Rain
10:35 PM 46.4°F 44.6°F 93% 30.41 in 3.0 miles Calm Calm - 0.02 in   Overcast
10:55 PM 46.4°F 44.6°F 93% 30.41 in 3.0 miles SSE 4.6 mph - 0.04 in   Overcast
11:15 PM 46.4°F 44.6°F 93% 30.40 in 9.0 miles South 5.8 mph - N/A Rain Light Rain
11:35 PM 46.4°F 44.6°F 93% 30.41 in 8.0 miles South 5.8 mph - N/A   Overcast
11:55 PM 46.4°F 44.6°F 93% 30.40 in 4.0 miles SSW 5.8 mph - 0.01 in Rain Light Rain
Moon Phase
Feb. 12 Feb. 17 Feb. 25 Mar. 04 Mar. 11
Sunrise:07:19 AM (PST) Moon Rise:08:06 AM (PST)2/12
Sunset:05:33 PM (PST) Moon Set:08:55 PM (PST)2/12

Copyright © 2014 The Weather Underground, Inc.